Taunton, MA

5:26 AM EDT on August 22, 2017 (GMT -0400)
Taunton Municipal

Weather History for KTAN - March, 2013

Change the Weather History Date:

Sunday, March 31, 2013

  Actual Average Record
Temperature  
Mean Temperature 42 °F -  
Max Temperature 60 °F 51 °F 82 °F (1998)
Min Temperature 26 °F 33 °F 20 °F (1965)
Degree Days  
Heating Degree Days 22    
Moisture  
Dew Point 27 °F    
Average Humidity 71    
Maximum Humidity 89    
Minimum Humidity 22    
Precipitation  
Precipitation 0.14 in - - ()
Sea Level Pressure  
Sea Level Pressure 30.06 in    
Wind  
Wind Speed 2 mph (South)    
Max Wind Speed 16 mph    
Max Gust Speed 29 mph    
Visibility 5 miles    
Events Fog , Rain    
Averages and records for this station are not official NWS values.
T = Trace of Precipitation, MM = Missing Value Source: NWS Daily Summary

Daily Weather History Graph

Daily Weather History Graph

Search for Another Location

Airport or City:

Trip Planner

Search our weather history database for the weather conditions in past years. The results will help you decide how hot, cold, wet, or windy it might be!

Date:

Astronomy

Mar. 31, 2013 Rise Set
Actual Time 6:28 AM EDT 7:08 PM EDT
Civil Twilight 6:00 AM EDT 7:36 PM EDT
Nautical Twilight 5:26 AM EDT 8:10 PM EDT
Astronomical Twilight 4:52 AM EDT 8:44 PM EDT
Moon No Moon Rise 9:09 AM EDT (3/31)
Length of Visible Light 13h 36m
Length of Day
12h 40m
Waning Gibbous, 78% of the Moon is Illuminated
Mar 31
Waning Gibbous
Apr 3
Last Quarter
Apr 10
New
Apr 18
First Quarter
Apr 25
Full

Hourly Weather History & Observations

Time (EDT) Temp. Windchill Dew Point Humidity Pressure Visibility Wind Dir Wind Speed Gust Speed Precip Events Conditions
12:18 AM 30.0 °F - 27.0 °F 88% 30.10 in 1.8 mi Calm Calm - N/A   Clear
12:29 AM 30.0 °F - 27.0 °F 88% 30.10 in 0.8 mi Calm Calm - N/A   Clear
12:52 AM 30.0 °F - 27.0 °F 88% 30.11 in 0.5 mi Calm Calm - N/A Fog Light Freezing Fog
1:02 AM 30.0 °F - 27.0 °F 88% 30.11 in 1.8 mi Calm Calm - N/A   Clear
1:04 AM 30.0 °F - 27.0 °F 88% 30.11 in 4.0 mi Calm Calm - N/A   Clear
1:16 AM 30.0 °F - 26.1 °F 85% 30.11 in 2.0 mi Calm Calm - N/A   Clear
1:34 AM 28.9 °F - 26.1 °F 89% 30.11 in 3.0 mi Calm Calm - N/A   Clear
1:41 AM 28.9 °F - 26.1 °F 89% 30.11 in 2.0 mi Calm Calm - N/A   Clear
1:52 AM 28.9 °F - 26.1 °F 89% 30.12 in 5.0 mi Calm Calm - N/A   Clear
2:19 AM 28.9 °F - 25.0 °F 85% 30.11 in 2.0 mi Calm Calm - N/A   Clear
2:29 AM 28.9 °F - 25.0 °F 85% 30.11 in 1.0 mi Calm Calm - N/A   Clear
2:38 AM 28.9 °F - 25.0 °F 85% 30.11 in 0.5 mi Calm Calm - N/A Fog Light Freezing Fog
2:50 AM 28.4 °F - 24.8 °F 86% 30.10 in 1.8 mi Calm Calm - N/A   Haze
2:52 AM 28.9 °F - 24.1 °F 82% 30.11 in 2.5 mi Calm Calm - N/A   Haze
3:06 AM 28.0 °F - 24.1 °F 85% 30.10 in 1.5 mi Calm Calm - N/A   Clear
3:11 AM 28.0 °F - 24.1 °F 85% 30.10 in 0.8 mi Calm Calm - N/A   Clear
3:42 AM 28.0 °F - 24.1 °F 85% 30.11 in 1.5 mi Calm Calm - N/A   Clear
3:44 AM 28.0 °F - 24.1 °F 85% 30.11 in 3.0 mi Calm Calm - N/A   Clear
3:52 AM 28.0 °F - 24.1 °F 85% 30.11 in 4.0 mi Calm Calm - N/A   Clear
4:52 AM 27.0 °F - 23.0 °F 85% 30.11 in 6.0 mi Calm Calm - N/A   Clear
5:38 AM 26.1 °F - 21.0 °F 81% 30.11 in 1.5 mi Calm Calm - N/A   Haze
5:41 AM 26.1 °F - 21.0 °F 81% 30.11 in 0.8 mi Calm Calm - N/A   Haze
5:52 AM 26.1 °F - 21.9 °F 84% 30.12 in 0.5 mi Calm Calm - N/A Fog Light Freezing Fog
6:06 AM 27.0 °F - 21.9 °F 81% 30.11 in 0.8 mi Calm Calm - N/A   Haze
6:13 AM 27.0 °F - 23.0 °F 85% 30.11 in 1.2 mi Calm Calm - N/A   Clear
6:15 AM 27.0 °F - 23.0 °F 85% 30.11 in 2.0 mi Calm Calm - N/A   Clear
6:22 AM 26.1 °F - 21.9 °F 84% 30.11 in 7.0 mi Calm Calm - N/A   Clear
6:52 AM 26.1 °F - 21.9 °F 84% 30.12 in 6.0 mi Calm Calm - N/A   Clear
7:52 AM 33.1 °F - 30.0 °F 89% 30.12 in 8.0 mi Calm Calm - N/A   Clear
8:52 AM 44.1 °F - 32.0 °F 63% 30.11 in 10.0 mi Calm Calm - N/A   Clear
9:52 AM 53.1 °F - 24.1 °F 32% 30.10 in 10.0 mi Variable 3.5 mph - N/A   Clear
10:52 AM 57.9 °F - 19.0 °F 22% 30.10 in 10.0 mi SSW 11.5 mph - N/A   Clear
11:52 AM 59.0 °F - 21.0 °F 23% 30.09 in 10.0 mi South 12.7 mph - N/A   Clear
12:52 PM 59.0 °F - 19.9 °F 22% 30.07 in 10.0 mi WSW 13.8 mph 20.7 mph N/A   Clear
1:52 PM 57.9 °F - 21.0 °F 24% 30.05 in 10.0 mi SSW 15.0 mph 28.8 mph N/A   Clear
2:52 PM 57.0 °F - 21.9 °F 26% 30.03 in 10.0 mi SW 15.0 mph 27.6 mph N/A   Clear
3:52 PM 55.0 °F - 24.1 °F 30% 30.02 in 10.0 mi SSW 16.1 mph 23.0 mph N/A   Clear
4:52 PM 54.0 °F - 28.9 °F 38% 30.00 in 10.0 mi South 10.4 mph 17.3 mph N/A   Clear
5:52 PM 53.1 °F - 34.0 °F 48% 29.99 in 10.0 mi Variable 5.8 mph - N/A   Overcast
6:52 PM 51.1 °F - 36.0 °F 56% 29.97 in 10.0 mi SSE 8.1 mph - N/A   Overcast
7:52 PM 48.9 °F - 36.0 °F 61% 29.95 in 10.0 mi SE 8.1 mph - N/A   Overcast
8:52 PM 50.0 °F - 32.0 °F 50% 29.91 in 10.0 mi SE 10.4 mph - N/A   Overcast
9:52 PM 50.0 °F - 34.0 °F 54% 29.86 in 10.0 mi SE 15.0 mph 23.0 mph 0.00 in Rain Light Rain
10:52 PM 46.9 °F - 39.9 °F 77% 29.81 in 7.0 mi SE 13.8 mph 21.9 mph 0.02 in Rain Light Rain
11:32 PM 46.0 °F 41.0 °F 42.1 °F 86% 29.77 in 5.0 mi SE 10.4 mph - 0.08 in Rain Light Rain
11:52 PM 46.9 °F - 42.1 °F 83% 29.75 in 5.0 mi SE 13.8 mph - 0.12 in Rain Rain